Terug naar catalogus

USA 356

ActiefMilitairVLEO
NORAD 59816·PAYLOAD·🇺🇸 United States

Gelanceerd May 22, 2024 vanaf Vandenberg Space Force Base

Loading…

Volgende Passages (komende 24 uur)

TLE

VerouderdSource: Mike McCants

Epoch: Aug 27, 2026, 19:58 UTC

1 59816U 24096C   26239.83230449 0.00000000  00000-0  00000-0 0    08
2 59816  70.0168 131.9292 0004000  35.7647 324.2353 14.96713468    07

Volg USA 356 in realtime met AllMySat

Download on the App Store